Location: Civitella
(43.4167°N, 11.7167°E)
Time: 10:10:52
(UTC+00:00)

Daily predictions for brighter satellites

Satellite Brightness Start Highest point End
(mag) Time Altitude Azimuth Time Altitude Azimuth Time Altitude Azimuth
Helios 1A Rocket 3.1 16:00:08 10° SSE 16:04:14 81° WSW 16:08:21 10° NNW
Cosmos 2219 Rocket 2.4 16:01:25 10° SSW 16:07:01 76° WNW 16:12:41 10° NNE
SL-16 R/B 4.5 16:03:51 10° WNW 16:07:04 15° NW 16:10:17 10° N
COBE Rocket 4.4 16:04:47 10° NNE 16:09:05 36° E 16:13:25 10° SSE
YAOGAN 6 4.5 16:08:49 10° E 16:09:53 11° ENE 16:10:58 10° NE
IRS-1C Rocket 4.2 16:05:36 10° SE 16:10:41 53° ENE 16:15:49 10° N
ATLAS 3B R/B 3.7 16:05:08 10° NW 16:11:40 54° WSW 16:18:21 10° SSE
USA 267 3.3 16:06:49 10° ESE 16:13:19 70° NE 16:19:48 10° NW
Exosat Rocket 3.6 16:08:54 10° S 16:14:15 61° ESE 16:19:11 10° NNE
Cosmos 1340 4.2 16:10:55 10° NNW 16:14:31 41° W 16:18:04 10° SSW
Cosmos 1733 Rocket 3.1 16:10:31 10° N 16:14:51 59° E 16:19:12 10° SSE
Cosmos 1992 Rocket 4.2 16:11:01 10° N 16:16:05 48° ENE 16:21:08 10° SE
Meteor 1-11 Rocket 3.9 16:10:52 10° N 16:16:48 61° ENE 16:22:39 10° SSE
CZ-4B R/B 3.7 16:14:16 10° NNW 16:17:10 24° WNW 16:20:00 10° SW
NOSS 3-4 (A) 4.5 16:12:31 10° WSW 16:18:09 40° NW 16:24:11 10° NNE
Meteor 1-27 Rocket 4.0 16:12:42 10° S 16:18:15 54° E 16:23:57 10° NNE
NOSS 3-4 (C) 4.5 16:12:37 10° WSW 16:18:16 40° NW 16:24:17 10° NNE
Cosmos 1500 3.2 16:15:03 10° N 16:18:45 53° E 16:22:24 10° SSE
Cosmos 1943 Rocket 4.0 16:18:56 10° NNE 16:19:50 10° NE 16:20:44 10° NE
BREEZE-M DEB (TANK) 2.7 16:18:43 10° WNW 16:25:00 51° N 16:27:31 11° E
Cosmos 1980 3.8 16:19:49 10° S 16:25:22 64° ESE 16:30:59 10° NNE
ATLAS 5 CENTAUR R/B 1.0 16:25:23 10° SSW 16:28:03 49° SE 16:29:34 15° NE
RESURS DK-1 3.4 16:27:57 10° SW 16:31:53 43° WNW 16:35:51 10° NNE
H-2A R/B 2.6 16:31:02 10° SSE 16:34:42 68° ENE 16:38:22 10° N
NOSS 0 Rocket 4.0 16:28:30 10° SSW 16:34:43 88° ESE 16:41:00 10° NNE
Cosmos 921 Rocket 4.1 16:33:32 10° N 16:36:52 22° ENE 16:40:13 10° ESE
Cosmos 1441 Rocket 4.3 16:34:30 10° NNE 16:37:38 23° ENE 16:40:42 10° SE
Feng Yun 1-1 Rocket 4.2 16:38:32 10° SSE 16:43:56 88° WSW 16:49:21 10° NNW
SKYMED 2 4.4 16:41:07 11° NE 16:44:51 30° E 16:48:40 10° SSE
COSMOS 2428 3.9 16:39:55 10° SW 16:45:14 40° WNW 16:50:37 10° NNE
Cosmos 1782 Rocket 4.4 16:41:53 10° NNE 16:45:38 28° ENE 16:49:22 10° SE
Cosmos 1263 4.2 16:45:54 10° S 16:48:53 51° E 16:51:23 13° NNE
FALCON 9 DEB 3.2 16:47:40 10° SW 16:51:08 66° SE 16:53:03 24° ENE
Cosmos 1862 Rocket 4.0 16:48:14 10° SSW 16:52:32 63° W 16:56:55 10° N
Cosmos 1536 2.7 16:48:40 10° N 16:52:43 86° E 16:56:42 10° S
Cosmos 1703 Rocket 3.8 16:51:19 10° SSE 16:55:37 48° E 16:59:57 10° NNE
ATLAS 2AS CENTAUR R/B 4.5 16:49:53 10° W 16:56:37 28° NNW 17:03:18 10° NNE
Genesis I 3.8 16:53:03 10° NNW 16:56:39 34° NE 16:58:25 23° E
Okean O Rocket 4.4 16:54:09 10° SW 16:57:28 21° W 17:00:48 10° NW
Cosmos 1092 Rocket 3.9 16:55:15 10° S 17:01:31 73° E 17:07:47 10° NNE
Cosmos 1666 2.5 16:59:24 10° N 17:03:09 74° E 17:06:52 10° SSE
Lacrosse 5 rocket 2.8 16:59:47 10° W 17:03:35 30° NNW 17:06:10 16° NNE
Cosmos 2242 Rocket 3.8 16:59:54 10° SSW 17:04:27 78° W 17:09:04 10° N
Aureole 1 Rocket 2.0 17:07:04 10° SSW 17:10:01 89° ESE 17:11:21 31° NNE
CZ-4 R/B 1.5 17:06:47 10° SE 17:10:29 44° ENE 17:14:11 10° N
SL-4 R/B 3.3 17:08:44 10° WNW 17:11:59 25° N 17:13:11 22° NNE
Okean 1 3.7 17:09:26 10° SSE 17:13:09 40° E 17:13:58 35° ENE
FengYun 1-2 T 4.1 17:07:51 10° SSE 17:13:16 68° ENE 17:18:45 10° N
Cosmos 2278 Rocket 3.3 17:08:19 10° NW 17:13:44 47° WSW 17:19:07 10° S
STARLINK-52 3.1 17:11:43 10° SW 17:15:13 84° SE 17:16:09 46° ENE
Okean-O 2.8 17:10:55 10° S 17:15:20 73° WSW 17:19:47 10° NNW
Shenzhou-11 Module 2.1 17:14:18 10° W 17:16:59 53° SSW 17:17:18 49° SSE
NOAA 12 4.5 17:14:29 10° S 17:19:45 67° WSW 17:25:02 10° NNW
USA 215 4.2 17:17:57 17° NE 17:22:22 38° NNW 17:28:17 10° W
STARLINK-29 3.2 17:19:53 10° WSW 17:23:24 75° NW 17:24:05 54° NE
Cosmos 2369 Rocket 3.5 17:22:16 10° N 17:25:28 22° NNE 17:25:28 22° NNE
SL-16 R/B 2.1 17:22:01 10° SSW 17:27:40 72° ESE 17:30:56 26° NNE
Cosmos 1743 2.6 17:25:00 10° N 17:28:50 61° E 17:32:39 10° SSE
Cosmos 1908 Rocket 4.2 17:24:39 10° NNW 17:28:57 55° W 17:33:12 10° S
USA 116 4.4 17:26:03 19° NNE 17:29:53 61° E 17:34:52 10° S
ISS -1.5 17:27:21 10° W 17:30:10 25° SW 17:33:00 10° SSE
Cosmos 614 Rocket 3.8 17:27:23 10° SSW 17:32:27 77° ESE 17:34:59 30° NNE
COSMO-SKYMED 1 2.6 17:29:39 17° N 17:32:58 82° WNW 17:37:18 10° SSW
Cosmos 1174 4.0 17:27:58 10° SSW 17:33:11 86° ESE 17:34:30 45° NE
S3M 4.2 17:29:09 10° N 17:35:05 44° ENE 17:40:54 10° SSE
Cosmos 2333 Rocket 4.5 17:33:30 10° W 17:37:25 18° NW 17:41:21 10° N
YAOGAN 1 2.4 17:34:05 10° SSE 17:38:24 74° ENE 17:42:43 10° N
Cosmos 2237 Rocket 3.4 17:33:09 10° SW 17:38:27 39° WNW 17:43:32 11° N
STARLINK-60 4.1 17:35:47 10° W 17:38:58 38° NNW 17:38:58 38° NNW
Meteor 1-19 Rocket 4.1 17:36:02 10° S 17:41:25 56° E 17:42:49 43° NE
Envisat 4.0 17:37:08 10° S 17:42:02 48° W 17:46:58 10° NNW
Cosmos 1428 Rocket 4.4 17:36:36 10° S 17:42:45 87° W 17:49:02 10° N
YAOGAN 6 3.3 17:39:29 10° S 17:42:55 51° W 17:46:25 10° NNW
Okean 1-7 3.5 17:39:03 10° SSW 17:43:19 60° W 17:46:42 16° N
Lacrosse 5 3.9 17:41:58 10° SSE 17:43:08 14° SSE 17:43:08 14° SSE
Meteor 2-4 Rocket 4.4 17:40:03 10° SSE 17:44:14 36° ESE 17:44:14 36° ESE
Cosmos 1553 Rocket 3.9 17:41:52 10° N 17:48:16 74° E 17:54:39 10° SSE
Cosmos 1140 Rocket 3.3 17:44:34 10° S 17:49:40 72° ESE 17:50:27 60° NE
Cosmos 407 Rocket 3.6 17:47:38 10° SSW 17:52:48 75° WNW 17:55:06 34° N
NOSS 3-1 (C) 4.5 17:52:50 10° NNW 17:59:39 38° NE 17:59:49 38° NE
Cosmos 1023 Rocket 4.3 17:55:15 10° SSW 18:00:20 89° WNW 18:01:02 67° NNE
Cosmos 489 Rocket 4.3 17:58:13 10° NNW 18:04:37 80° ENE 18:08:07 29° SSE
Cosmos 1943 Rocket 3.0 17:59:30 10° NNW 18:03:07 36° N 18:03:07 36° N
USA 229 DEB 4.3 18:01:35 10° NNW 18:07:49 41° NNE 18:07:49 41° NNE
USA 229 4.3 18:01:42 10° NNW 18:07:53 40° NNE 18:07:53 40° NNE
CSL-04 Rocket 4.0 18:04:57 10° S 18:10:09 61° WSW 18:15:24 10° NNW
Cosmos 1867 3.5 18:05:42 10° NNW 18:10:41 72° N 18:10:41 72° N
Cosmos 921 Rocket 4.5 18:11:20 10° NW 18:15:15 35° W 18:19:12 10° SSW
CZ-3B R/B 4.4 18:13:16 10° S 18:16:01 14° SSE 18:16:01 14° SSE
Cosmos 1655 Rocket 4.3 18:28:10 10° SSW 18:34:25 65° W 18:37:01 36° NNW
CZ-4 R/B 4.4 18:43:39 10° SW 18:45:45 14° W 18:47:50 10° WNW
Cosmos 2369 Rocket 4.3 19:05:40 10° NNW 19:07:18 20° NW 19:07:18 20° NW
SL-16 R/B 4.3 19:08:10 10° W 19:12:22 21° NW 19:12:51 21° NW
Cosmos 2344 4.4 19:31:58 10° NW 19:40:45 75° NW 19:40:45 75° NW
